Location: Dennehotso
(36.8461°N, 109.8435°W)
Time: 21:32:46
(UTC+00:00)

N. Korean satellite - Pass Details

Date: 03 March 2021
Orbit: 452 x 499 km, 97.2° (Epoch: 15 April)

Event Time Altitude Azimuth Distance (km) Brightness Sun altitude
Rises 13:18:06 0° 358° (N) 2,525 10.2 -6.6°
Reaches altitude 10° 13:20:20 10° 346° (NNW) 1,651 9.1 -6.1°
Maximum altitude 13:23:22 27° 287° (WNW) 953 7.5 -5.5°
Drops below altitude 10° 13:26:26 10° 228° (SW) 1,664 8.9 -4.9°
Sets 13:28:42 0° 216° (SW) 2,548 9.9 -4.5°
